Morgantown, WV

11:44 AM EDT on June 23, 2017 (GMT -0400)
Morgantown Municipal-Hart

Weather History for KMGW - February, 2005

Change the Weather History Date:

Monday, February 21, 2005

  Actual Average Record
Temperature  
Mean Temperature 46 °F 35 °F  
Max Temperature 55 °F 44 °F 73 °F (1997)
Min Temperature 36 °F 26 °F -8 °F (1968)
Degree Days  
Heating Degree Days 20 30  
Month to date heating degree days 662  
Since 1 July heating degree days 3689  
Cooling Degree Days 0 0  
Month to date cooling degree days 0  
Year to date cooling degree days 0  
Moisture  
Dew Point 44 °F    
Average Humidity 91    
Maximum Humidity 100    
Minimum Humidity 72    
Precipitation  
Precipitation 0.14 in 0.09 in 0.98 in (1989)
Month to date precipitation 1.91  
Year to date precipitation 4.72  
Sea Level Pressure  
Sea Level Pressure 29.89 in    
Wind  
Wind Speed 8 mph (West)    
Max Wind Speed 16 mph    
Max Gust Speed 22 mph    
Visibility 6 miles    
Events Fog , Rain    
T = Trace of Precipitation, MM = Missing Value Source: NWS Daily Summary

Daily Weather History Graph

Daily Weather History Graph

Search for Another Location

Airport or City:

Trip Planner

Search our weather history database for the weather conditions in past years. The results will help you decide how hot, cold, wet, or windy it might be!

Date:

Astronomy

Feb. 21, 2005 Rise Set
Actual Time 7:03 AM EST 6:03 PM EST
Civil Twilight 6:36 AM EST 6:30 PM EST
Nautical Twilight 6:05 AM EST 7:01 PM EST
Astronomical Twilight 5:34 AM EST 7:33 PM EST
Moon 3:33 PM EST (2/21) 6:06 AM EST (2/21)
Length of Visible Light 11h 53m
Length of Day
10h 59m
Waxing Gibbous, 94% of the Moon is Illuminated
Feb 21
Waxing Gibbous
Feb 23
Full
Mar 3
Last Quarter
Mar 10
New
Mar 17
First Quarter

Hourly Weather History & Observations

Time (EST) Temp. Windchill Dew Point Humidity Pressure Visibility Wind Dir Wind Speed Gust Speed Precip Events Conditions
12:03 AM 44.6 °F 40.7 °F 42.8 °F 93% 29.85 in 6.0 mi SSW 6.9 mph - 0.01 in Rain Light Rain
12:53 AM 46.0 °F 41.0 °F 44.1 °F 93% 29.86 in 10.0 mi SW 10.4 mph 17.3 mph 0.02 in   Overcast
1:53 AM 46.9 °F - 44.1 °F 90% 29.87 in 10.0 mi SW 10.4 mph 16.1 mph N/A   Overcast
2:53 AM 48.0 °F - 45.0 °F 89% 29.86 in 10.0 mi SSW 9.2 mph - 0.01 in Rain Light Rain
3:53 AM 48.0 °F - 45.0 °F 89% 29.87 in 10.0 mi SW 9.2 mph - 0.00 in Rain Light Rain
4:53 AM 48.0 °F - 46.0 °F 93% 29.88 in 5.0 mi SSW 8.1 mph - 0.00 in   Overcast
5:53 AM 48.0 °F - 46.0 °F 93% 29.90 in 7.0 mi SW 6.9 mph - N/A   Overcast
6:53 AM 48.9 °F - 46.9 °F 93% 29.90 in 7.0 mi SSW 6.9 mph - N/A   Overcast
7:53 AM 48.9 °F - 46.9 °F 93% 29.91 in 9.0 mi SSW 5.8 mph - N/A   Overcast
8:53 AM 50.0 °F - 46.9 °F 89% 29.92 in 8.0 mi SW 4.6 mph - N/A   Overcast
9:53 AM 50.0 °F - 48.0 °F 93% 29.90 in 4.0 mi SSW 5.8 mph - N/A   Overcast
10:28 AM 50.0 °F - 48.2 °F 94% 29.89 in 5.0 mi Variable 4.6 mph - N/A   Overcast
10:45 AM 50.0 °F - 48.2 °F 94% 29.89 in 2.5 mi SSW 4.6 mph - 0.01 in Rain Light Rain
10:53 AM 50.0 °F - 48.9 °F 96% 29.90 in 3.0 mi SW 5.8 mph - 0.01 in Rain Light Rain
11:39 AM 51.8 °F - 48.2 °F 88% 29.88 in 7.0 mi Variable 5.8 mph - 0.00 in   Overcast
11:53 AM 53.1 °F - 50.0 °F 89% 29.88 in 8.0 mi SW 10.4 mph - 0.00 in   Overcast
12:53 PM 55.0 °F - 48.0 °F 77% 29.86 in 10.0 mi WSW 10.4 mph - N/A   Overcast
1:07 PM 55.4 °F - 48.2 °F 77% 29.85 in 10.0 mi SW 6.9 mph - N/A   Overcast
1:53 PM 55.0 °F - 48.0 °F 77% 29.83 in 10.0 mi SSW 5.8 mph - N/A   Overcast
2:53 PM 55.9 °F - 46.9 °F 72% 29.81 in 10.0 mi SW 9.2 mph - N/A   Overcast
3:53 PM 55.9 °F - 46.9 °F 72% 29.83 in 10.0 mi SW 5.8 mph - N/A   Overcast
4:53 PM 50.0 °F - 46.0 °F 86% 29.85 in 2.5 mi North 11.5 mph - 0.06 in Rain Heavy Rain
5:01 PM 48.2 °F - 46.4 °F 93% 29.84 in 1.8 mi North 11.5 mph 17.3 mph 0.04 in Rain Light Rain
5:06 PM 48.2 °F - 46.4 °F 93% 29.85 in 2.5 mi North 12.7 mph 19.6 mph 0.04 in Rain Light Rain
5:10 PM 46.4 °F 40.4 °F 44.6 °F 93% 29.85 in 1.0 mi North 13.8 mph 19.6 mph 0.04 in   Overcast
5:13 PM 46.4 °F 39.8 °F 44.6 °F 93% 29.85 in 0.5 mi North 16.1 mph 21.9 mph 0.04 in Fog Fog
5:29 PM 44.6 °F 40.2 °F 44.6 °F 100% 29.87 in 0.2 mi North 8.1 mph - 0.04 in Fog Fog
5:53 PM 43.0 °F 37.2 °F 43.0 °F 100% 29.89 in 0.5 mi North 10.4 mph - 0.04 in Fog Fog
6:22 PM 42.8 °F 38.0 °F 42.8 °F 100% 29.90 in 1.8 mi North 8.1 mph - N/A   Overcast
6:29 PM 42.8 °F 39.3 °F 41.0 °F 93% 29.91 in 3.0 mi North 5.8 mph - N/A   Overcast
6:53 PM 42.1 °F 38.4 °F 41.0 °F 96% 29.94 in 4.0 mi North 5.8 mph - N/A   Overcast
7:53 PM 39.9 °F 33.9 °F 39.0 °F 97% 29.95 in 4.0 mi North 9.2 mph - N/A   Overcast
8:53 PM 39.0 °F 34.0 °F 37.0 °F 93% 29.98 in 7.0 mi Variable 6.9 mph - N/A   Overcast
9:36 PM 37.4 °F 31.4 °F 35.6 °F 93% 29.97 in 5.0 mi North 8.1 mph - N/A   Overcast
9:53 PM 37.0 °F 31.0 °F 36.0 °F 96% 30.00 in 5.0 mi North 8.1 mph - N/A   Overcast
10:53 PM 36.0 °F 29.6 °F 34.0 °F 93% 30.04 in 6.0 mi NNW 8.1 mph - N/A   Overcast
11:53 PM 36.0 °F 30.3 °F 33.1 °F 89% 30.05 in 9.0 mi NNW 6.9 mph - N/A   Overcast